Wind_Speed
11 10 9 10 10 10 9 8 6 4 6 10 12 13 14 16 16 17 18 18 18 17 16 15 13 11 11 11 10 10 9 7 5 4 4 6 8 12 13 13 14 14 12 11
13 12 12 12 11 10 10 10 8 8 9 11 13 13 13 14 15 16 18 18 16 17 16 15 13 11 10 10 10 10 9 7 5 4 3 5 7 10 11 13 14 14 13 12
14 15 15 14 13 11 11 11 11 12 12 14 15 14 13 13 14 15 16 16 16 15 15 14 13 12 10 10 10 10 8 7 6 5 2 4 7 9 10 12 14 14 13 13
16 17 17 15 13 13 12 12 12 13 13 13 15 15 14 14 14 14 15 16 15 15 15 14 13 12 10 9 9 10 9 7 6 4 3 3 7 9 10 12 13 13 13 12
17 18 18 16 14 14 13 14 14 14 14 13 13 15 14 14 13 14 15 15 16 16 15 14 13 12 10 9 9 10 9 7 6 5 4 5 7 9 10 10 11 12 12 12
19 19 18 16 16 16 15 15 15 15 14 12 13 15 14 13 13 12 14 15 16 16 15 14 13 12 11 10 10 10 8 7 6 5 4 5 6 8 9 9 10 11 12 13
21 19 18 17 17 16 16 16 16 15 14 12 12 13 12 12 13 13 14 15 16 15 15 15 13 11 11 10 9 8 8 7 6 5 4 5 6 8 9 9 9 11 11 12
22 19 17 17 15 15 16 16 16 16 14 13 13 13 13 12 13 13 13 13 13 13 14 14 12 10 10 10 9 8 7 7 5 4 3 4 5 7 8 9 9 10 11 12
22 19 19 19 17 16 15 15 16 17 16 17 16 14 14 13 14 13 14 15 14 14 13 12 11 9 10 9 9 8 7 6 5 4 3 5 5 6 7 8 9 10 11 12
22 21 21 20 20 17 14 14 17 18 18 18 17 16 14 15 15 15 15 15 14 15 14 11 9 8 9 9 9 9 8 7 5 4 3 5 6 7 8 9 10 10 11 12
23 23 22 22 21 17 15 15 17 18 19 19 18 17 17 17 17 16 15 15 14 15 15 12 9 8 9 9 9 10 9 8 6 5 4 5 6 7 8 8 9 10 12 13
24 25 25 24 22 21 19 17 17 19 19 20 21 19 18 18 18 17 15 16 16 14 13 13 10 10 9 9 9 9 9 8 7 6 6 6 6 7 8 9 10 11 12 13
25 28 27 27 26 25 22 20 19 19 20 21 22 19 19 19 18 18 18 18 15 13 14 13 12 11 10 10 10 10 9 9 8 7 7 7 8 8 9 9 10 11 12 12
29 30 29 28 26 26 26 23 21 21 22 22 21 19 19 19 20 19 20 20 18 16 15 14 13 12 11 12 11 10 10 10 9 8 8 9 9 9 10 10 11 11 12 12
33 32 31 29 29 29 29 28 25 24 23 22 21 21 21 21 21 21 22 22 19 18 18 16 15 14 14 13 13 12 11 11 10 10 10 10 10 10 10 11 12 13 13 14
37 36 34 32 31 31 31 30 29 27 24 23 22 22 22 24 24 24 25 24 22 21 21 18 16 16 16 15 14 14 13 13 12 12 12 11 11 11 12 12 13 14 14 15
42 40 39 36 34 33 34 31 30 29 27 26 25 23 23 26 27 27 26 25 25 24 23 22 18 17 16 16 15 15 14 14 14 14 14 13 13 13 13 14 14 14 15 16
46 44 42 40 37 39 33 32 33 33 31 30 29 27 26 26 27 27 27 27 26 25 24 22 20 19 17 17 17 16 15 15 15 15 15 15 15 15 15 16 15 15 16 18
50 47 45 44 42 39 34 32 34 36 36 34 32 31 30 29 29 28 28 28 28 26 25 23 22 21 19 19 18 18 17 17 16 16 16 16 16 17 17 17 16 17 17 18
51 50 48 45 43 40 34 33 34 36 38 37 36 34 33 32 31 30 29 29 28 28 27 26 24 22 21 21 21 20 19 18 18 18 17 17 17 18 18 19 18 18 18 19
50 50 49 46 44 41 36 34 34 37 38 37 36 36 35 34 33 32 31 30 30 29 28 27 26 24 22 22 22 21 21 20 20 19 19 19 19 19 19 19 19 19 20 20
48 48 48 45 44 41 37 36 37 38 37 37 36 36 35 34 34 33 33 32 31 29 29 28 27 25 24 24 24 24 23 22 22 22 21 22 21 21 21 21 21 20 21 21
44 45 45 44 43 40 37 37 38 38 39 38 37 37 37 36 36 35 34 33 32 31 31 31 29 28 28 27 26 25 25 25 25 24 24 24 23 23 23 22 22 22 23 23
43 43 42 42 42 40 37 36 37 39 39 39 38 38 38 38 38 37 37 36 35 34 33 33 32 32 31 30 29 28 27 27 27 27 26 25 25 24 24 23 23 24 24 24
43 42 42 42 40 39 37 36 36 37 38 39 39 40 40 39 39 38 38 38 37 36 36 35 34 33 33 31 30 30 29 29 30 29 28 27 27 26 26 25 25 25 25 25
42 42 42 41 40 39 37 36 36 36 37 38 38 39 39 39 39 38 38 38 39 38 37 35 34 34 33 33 32 32 31 32 31 31 30 29 28 28 27 27 27 27 27 27
Wind_Direction
246 245 246 245 244 251 260 266 269 282 297 301 303 304 307 310 315 325 334 338 339 343 347 345 341 342 346 349 345 344 336 325 316 302 263 227 216 213 211 210 210 209 207 207
245 246 246 247 248 252 260 261 254 248 261 278 289 296 301 307 310 319 329 334 334 341 347 344 341 339 342 349 349 346 341 332 321 308 284 224 212 206 207 207 210 209 206 208
242 244 248 251 253 252 253 258 254 251 257 268 280 287 293 301 306 316 327 332 333 339 344 343 341 339 341 345 344 342 338 327 322 312 283 216 205 205 204 207 210 208 206 208
243 248 251 252 257 254 251 254 256 257 261 266 274 278 280 289 299 311 321 330 333 337 342 342 341 340 338 338 338 336 334 330 326 316 278 221 208 207 205 205 204 204 208 213
243 246 249 251 254 251 253 254 258 260 263 268 271 274 280 285 294 308 322 330 331 335 340 340 339 335 331 331 333 330 328 327 318 309 272 230 212 211 210 208 208 211 217 221
242 246 250 252 252 250 251 254 259 261 261 259 264 272 278 285 292 304 319 328 331 334 337 340 340 336 333 328 329 329 326 325 317 302 266 236 216 211 212 212 212 216 222 226
243 244 250 251 251 251 252 255 256 256 257 255 264 273 283 286 294 301 310 324 331 333 334 334 332 331 335 332 328 328 324 320 314 305 261 235 220 216 214 217 219 218 220 225
241 239 242 245 247 251 254 255 257 258 254 250 260 274 284 291 294 296 304 314 326 334 333 332 329 326 334 335 331 329 326 325 317 306 257 232 228 221 216 216 220 223 225 229
239 236 234 238 236 240 248 255 258 258 255 254 257 270 281 292 296 300 308 317 327 333 333 334 330 322 328 333 334 328 324 325 321 310 256 232 229 226 226 224 226 229 232 235
236 235 235 237 236 237 244 251 254 255 256 258 258 264 276 292 300 306 313 316 326 329 331 332 327 326 326 326 330 333 325 321 315 302 268 245 234 238 237 236 237 243 244 245
233 233 231 236 239 238 242 247 253 255 257 259 261 261 263 277 289 297 304 316 321 324 325 328 328 325 325 325 328 331 326 317 307 292 269 255 251 249 247 246 244 247 249 249
231 232 229 232 236 239 241 247 252 255 257 259 262 260 261 272 283 290 298 307 312 323 327 335 331 326 325 322 324 326 324 319 311 298 280 269 268 265 260 254 252 253 253 253
230 231 228 226 229 236 241 245 250 256 257 256 259 261 260 266 277 284 294 301 303 314 323 329 329 326 324 321 319 318 316 314 312 304 292 285 279 275 271 266 261 261 261 260
232 234 233 230 228 232 237 241 247 253 256 258 258 256 257 264 272 281 292 295 302 310 316 320 323 323 321 320 315 311 309 308 306 304 296 289 284 279 272 268 267 266 264 263
230 234 236 233 229 229 233 236 239 246 252 255 255 253 254 261 269 278 286 292 300 307 312 315 318 319 317 316 313 306 304 302 299 297 296 293 286 282 278 272 270 266 265 265
228 232 236 238 235 232 233 235 237 241 246 249 251 251 252 259 267 274 284 291 295 300 307 307 311 311 311 311 308 303 299 297 295 290 291 293 292 287 282 278 273 269 267 268
228 232 236 239 240 239 235 235 237 241 245 247 249 251 252 255 263 272 279 284 289 295 299 302 303 305 305 305 304 299 294 294 292 287 285 287 289 288 287 285 281 278 274 272
231 233 237 240 243 242 241 237 239 241 243 245 248 252 254 258 263 270 277 283 288 294 296 298 299 299 301 302 301 299 295 294 293 287 285 283 283 284 284 284 282 280 278 275
233 236 239 242 244 246 242 238 238 239 242 244 247 251 256 261 265 270 276 282 287 290 292 294 293 294 296 297 297 297 295 294 292 289 286 284 284 285 283 282 281 280 280 280
233 237 240 242 245 245 242 238 238 239 241 243 247 251 256 262 265 271 276 279 283 284 287 289 289 287 289 292 291 292 293 292 291 290 289 286 286 285 282 281 281 282 281 279
231 235 239 242 245 246 242 240 239 238 241 243 247 251 256 261 265 269 272 274 277 281 283 284 285 283 283 287 290 289 288 288 287 288 289 288 287 286 285 283 281 280 280 279
230 233 237 240 243 244 242 240 239 240 242 245 248 252 256 260 263 266 269 272 274 278 281 283 283 279 280 283 285 285 284 284 284 285 287 287 286 284 283 282 281 280 280 281
229 232 236 239 242 244 243 242 241 241 242 244 247 251 254 257 261 264 268 272 274 277 279 281 280 279 280 281 282 282 282 282 283 283 284 284 284 282 281 280 279 279 279 280
230 231 233 236 239 242 242 241 242 242 243 245 247 250 253 256 258 261 265 270 273 275 277 280 278 279 280 281 281 280 280 282 283 283 283 283 282 281 280 279 279 279 278 278
230 232 234 236 239 241 241 242 242 242 244 246 247 249 252 254 257 260 264 267 269 272 275 277 275 275 277 277 278 278 279 281 282 281 282 281 280 279 279 279 278 277 278 279
229 230 233 236 239 241 241 242 242 244 246 248 249 250 252 255 257 259 262 265 268 271 273 275 274 273 275 277 277 277 277 279 280 280 280 280 279 279 278 277 276 277 276 276
Height
5916 5917 5917 5917 5917 5917 5917 5917 5916 5916 5915 5915 5913 5912 5912 5910 5909 5908 5906 5905 5903 5900 5897 5894 5892 5890 5888 5886 5884 5882 5880 5879 5878 5878 5878 5879 5880 5882 5884 5886 5889 5891 5893 5895
5913 5914 5914 5914 5914 5914 5914 5914 5914 5914 5914 5913 5912 5911 5910 5909 5907 5906 5905 5903 5902 5900 5897 5894 5892 5889 5887 5885 5884 5882 5880 5878 5877 5876 5876 5877 5878 5880 5882 5884 5886 5889 5891 5893
5909 5911 5910 5911 5911 5912 5912 5912 5912 5912 5912 5910 5910 5909 5908 5908 5906 5905 5904 5902 5901 5898 5896 5893 5891 5888 5886 5885 5883 5881 5879 5877 5876 5875 5875 5876 5877 5878 5880 5882 5884 5886 5889 5890
5905 5906 5906 5907 5908 5908 5908 5909 5909 5909 5909 5908 5908 5907 5906 5904 5904 5903 5902 5901 5899 5897 5894 5891 5889 5887 5885 5884 5882 5880 5878 5876 5875 5874 5873 5874 5875 5877 5878 5880 5882 5884 5886 5888
5901 5902 5902 5903 5905 5905 5905 5905 5906 5905 5905 5905 5905 5904 5904 5902 5902 5901 5900 5900 5898 5895 5892 5890 5888 5886 5884 5882 5881 5879 5877 5875 5874 5873 5872 5872 5874 5875 5877 5878 5880 5882 5884 5886
5896 5897 5898 5899 5900 5901 5901 5902 5902 5902 5902 5903 5902 5901 5901 5900 5899 5899 5899 5897 5896 5893 5890 5888 5886 5885 5883 5881 5879 5878 5876 5874 5873 5871 5871 5871 5872 5873 5875 5877 5878 5880 5881 5883
5890 5892 5894 5895 5896 5897 5897 5898 5899 5899 5899 5900 5899 5898 5898 5897 5897 5896 5896 5895 5893 5891 5889 5887 5885 5883 5881 5879 5877 5876 5874 5873 5871 5870 5869 5869 5870 5872 5874 5875 5876 5878 5879 5881
5884 5887 5889 5890 5892 5893 5893 5894 5896 5896 5896 5896 5895 5894 5895 5894 5893 5892 5892 5891 5890 5889 5887 5885 5883 5881 5880 5878 5876 5874 5873 5872 5870 5869 5868 5869 5869 5870 5872 5873 5874 5875 5877 5878
5878 5882 5884 5885 5886 5888 5889 5890 5891 5891 5891 5891 5891 5891 5891 5891 5890 5890 5889 5888 5887 5886 5884 5882 5880 5879 5878 5877 5875 5873 5872 5871 5869 5868 5867 5868 5868 5869 5870 5871 5872 5873 5874 5875
5872 5876 5879 5880 5881 5883 5885 5886 5886 5887 5887 5887 5888 5888 5888 5887 5887 5887 5887 5886 5885 5884 5881 5879 5878 5877 5876 5875 5873 5872 5870 5869 5868 5867 5867 5867 5867 5868 5868 5869 5870 5871 5871 5872
5866 5870 5873 5874 5876 5878 5880 5882 5882 5883 5883 5883 5883 5886 5885 5884 5884 5883 5883 5883 5883 5882 5879 5877 5876 5875 5874 5873 5872 5870 5869 5868 5867 5866 5866 5866 5866 5866 5866 5867 5867 5868 5869 5869
5860 5863 5866 5869 5872 5873 5875 5877 5878 5879 5880 5879 5879 5883 5881 5881 5880 5880 5880 5881 5880 5878 5877 5876 5874 5873 5872 5871 5870 5868 5867 5866 5865 5864 5864 5864 5864 5864 5864 5864 5865 5865 5865 5866
5854 5856 5860 5864 5868 5868 5869 5871 5873 5874 5875 5875 5875 5879 5877 5877 5877 5877 5877 5878 5877 5876 5875 5874 5872 5871 5869 5868 5867 5866 5865 5864 5863 5863 5862 5862 5862 5862 5861 5861 5861 5862 5862 5862
5847 5849 5854 5858 5862 5863 5864 5866 5868 5869 5869 5870 5871 5873 5872 5873 5873 5873 5873 5873 5874 5873 5872 5871 5870 5868 5867 5866 5865 5864 5863 5862 5861 5861 5860 5860 5859 5859 5859 5858 5858 5858 5858 5858
5839 5842 5846 5851 5855 5857 5859 5861 5862 5863 5864 5866 5867 5867 5868 5869 5869 5869 5869 5870 5870 5869 5869 5868 5866 5865 5864 5863 5862 5862 5861 5860 5859 5858 5857 5857 5856 5856 5855 5855 5855 5854 5854 5854
5832 5836 5839 5844 5848 5850 5853 5855 5857 5858 5859 5860 5861 5862 5864 5864 5864 5865 5865 5865 5865 5865 5865 5864 5863 5862 5861 5860 5859 5858 5858 5857 5856 5855 5854 5854 5853 5852 5852 5851 5851 5850 5850 5850
5824 5828 5832 5836 5840 5843 5846 5851 5852 5852 5853 5855 5855 5858 5858 5859 5860 5860 5861 5861 5861 5861 5860 5860 5859 5858 5857 5856 5855 5855 5854 5853 5852 5851 5850 5850 5849 5848 5847 5847 5846 5845 5845 5845
5817 5821 5825 5829 5833 5835 5843 5845 5845 5846 5847 5848 5849 5851 5853 5854 5856 5857 5857 5857 5856 5856 5855 5855 5854 5854 5853 5852 5851 5850 5850 5849 5848 5847 5846 5845 5845 5844 5843 5842 5842 5841 5840 5840
5809 5813 5817 5821 5823 5827 5834 5837 5838 5839 5839 5842 5843 5845 5847 5848 5850 5851 5852 5852 5852 5851 5851 5850 5849 5849 5848 5847 5846 5846 5845 5844 5843 5842 5841 5840 5840 5839 5838 5837 5837 5836 5835 5834
5800 5804 5808 5811 5814 5818 5826 5829 5829 5831 5831 5835 5837 5839 5841 5843 5844 5846 5846 5846 5846 5846 5846 5845 5844 5843 5843 5842 5841 5840 5839 5839 5838 5837 5836 5835 5835 5834 5833 5832 5831 5830 5829 5829
5791 5794 5797 5802 5805 5809 5816 5819 5822 5823 5825 5829 5831 5833 5835 5837 5839 5840 5840 5840 5840 5839 5839 5838 5837 5837 5836 5836 5835 5834 5834 5833 5833 5832 5831 5830 5829 5828 5827 5826 5825 5825 5824 5823
5781 5785 5789 5793 5796 5802 5807 5810 5813 5815 5818 5821 5824 5826 5827 5829 5831 5832 5833 5833 5833 5833 5832 5831 5831 5830 5829 5829 5829 5828 5828 5827 5826 5826 5825 5824 5823 5822 5821 5820 5819 5818 5817 5816
5771 5776 5781 5785 5790 5793 5798 5801 5804 5807 5810 5813 5816 5818 5820 5821 5822 5824 5824 5825 5825 5825 5825 5824 5824 5823 5822 5822 5821 5821 5820 5820 5819 5819 5818 5817 5816 5815 5814 5813 5812 5811 5810 5810
5762 5767 5771 5775 5778 5783 5788 5792 5795 5798 5801 5804 5807 5809 5811 5813 5814 5815 5816 5817 5817 5817 5816 5816 5816 5815 5815 5814 5814 5813 5813 5812 5812 5811 5810 5810 5809 5808 5807 5806 5805 5804 5803 5802
5754 5759 5762 5766 5771 5775 5779 5783 5786 5789 5792 5795 5798 5800 5801 5804 5805 5806 5807 5807 5808 5808 5808 5807 5806 5806 5807 5806 5806 5805 5804 5804 5803 5803 5802 5802 5801 5800 5799 5798 5798 5797 5796 5795
5745 5750 5754 5758 5763 5767 5771 5775 5778 5780 5783 5785 5788 5790 5792 5794 5796 5797 5797 5798 5798 5799 5798 5798 5798 5798 5797 5797 5797 5796 5796 5795 5795 5794 5793 5793 5792 5792 5791 5790 5789 5788 5788 5787